Content
SEND FEEDBACK

Daily
Averages
Monthly
Summary
Jamaica

GOLDEN GROVE, JAMAICA


Home > Caribbean > Jamaica
Elevation: 7 feet     Latitude: 17 55N     Longitude: 076 10W

WEATHER
 
SELECT A DAY
Number of Records: 169,325;   Date Range: 6/30/96 - 9/15/14
 
SHARE

PRINT THIS DATA

[ ← Previous Day ]
WEATHER ALMANAC - JANUARY 23, 2013
[ Next Day → ]
[ °C ]   °F
Weather ElementAverageHighLow
Temperature76.7 °F86 °F (1:00 pm) (4:00 am)
Dewpoint66.6 °F73.4 °F (4:00 pm) (7:00 pm)
Humidity69.1 %88 % (7:00 am)49 % (1:00 pm)
Barometer28.96 in30.09 in (10:00 am) (7:00 pm)
Wind Speed8.1 mph13.8 mph (4:00 pm)
Weather ElementAverage
Visibility7.8 mi
Wind DirectionSSE (154.6 °)

Weather ElementTotal
Precipitation---
Heating Degree Days22 (Base 65)
Averaged from 28 records on January 23, 2013
WEATHER CONDITIONS BREAKOUT
WIND DIRECTION BREAKOUT
WEATHER BY HOUR - JANUARY 23, 2013
[ °C ]   °F
Local TimeTemperatureDewpointHumidityBarometerVisibilityWind DirectionWind SpeedGust SpeedPrecipitationEventsConditions
1:00 AM76.0 °F68.0 °F69 %30.04 in12.0 miNorth8.1 mphHaze
1:00 AM77.0 °F68.0 °F74 %30.04 in6.2 miNorth (360°)8.1 mphPartly Cloudy
2:00 AM77.0 °F66.2 °F69 %30.01 in6.2 miNorth (10°)8.1 mphPartly Cloudy
3:00 AM77.0 °F64.4 °F65 %30.01 in6.2 miNorth (10°)9.2 mphPartly Cloudy
4:00 AM76.0 °F66.0 °F65 %30.01 in12.0 miNE (40°)6.9 mphHaze
4:00 AM0.0 °F0.0 °FNE (40°)6.9 mph
5:00 AM77.0 °F68.0 °F74 %30.01 in6.2 miNE (40°)4.6 mphPartly Cloudy
6:00 AM75.2 °F68.0 °F78 %30.01 in6.2 miNorth (10°)6.9 mphPartly Cloudy
7:00 AM73.0 °F69.0 °F84 %30.05 in14.0 miNNE (20°)6.9 mphHaze
7:00 AM73.4 °F69.8 °F88 %30.04 in6.2 miNNE (20°)6.9 mphPartly Cloudy
8:00 AM78.8 °F66.2 °F65 %30.06 in6.2 miNNE (20°)5.8 mphScattered Clouds
10:00 AM82.0 °F69.0 °F57 %30.09 in15.0 miSouth (190°)4.6 mphHaze
10:00 AM82.4 °F69.8 °F66 %30.09 in6.2 miSouth (190°)4.6 mphMostly Cloudy
11:00 AM80.6 °F68.0 °F65 %30.06 in6.2 miSSW (200°)4.6 mphMostly Cloudy
12:00 PM82.4 °F68.0 °F62 %30.04 in6.2 miSouth (180°)9.2 mphPartly Cloudy
1:00 PM85.0 °F69.0 °F49 %30.04 in15.0 miSouth (190°)8.1 mphHaze
1:00 PM86.0 °F68.0 °F55 %30.04 in6.2 miSouth (190°)8.1 mphPartly Cloudy
2:00 PM84.2 °F69.8 °F62 %30.01 in6.2 miSouth (170°)10.4 mphPartly Cloudy
3:00 PM84.2 °F71.6 °F66 %29.98 in6.2 miSSE (160°)11.5 mphScattered Clouds
4:00 PM84.2 °F73.4 °F70 %29.98 in6.2 miSSE (150°)13.8 mphPartly Cloudy
5:00 PM82.4 °F71.6 °F70 %29.98 in6.2 miSSE (160°)11.5 mphScattered Clouds
6:00 PM82.4 °F69.8 °F66 %30.01 in6.2 miNorth (350°)8.1 mphPartly Cloudy
7:00 PM80.6 °F71.6 °F74 %30.01 in6.2 miNW (320°)13.8 mphPartly Cloudy
8:00 PM78.8 °F69.8 °F74 %30.04 in6.2 miNNW (340°)11.5 mphPartly Cloudy
9:00 PM78.8 °F69.8 °F74 %30.04 in6.2 miWNW (300°)5.8 mphPartly Cloudy
10:00 PM78.0 °F71.0 °F73 %30.06 in12.0 miNNW (330°)8.1 mphHaze
10:00 PM78.8 °F71.6 °F78 %30.06 in6.2 miNNW (330°)8.1 mphPartly Cloudy
11:00 PM77.0 °F68.0 °F74 %30.04 in6.2 miNorth (10°)6.9 mphPartly Cloudy
Hourly data recorded from MKKJ, located miles away from Golden Grove, Jamaica







STORIES FROM OUR PARTNERS